Weather History for FENTRESS NALF, VA

Change the Weather History Date:

Friday, March 7, 2014

  Actual Average (KORF) Record (KORF)
Temperature  
Mean Temperature 44 °F 47 °F  
Max Temperature 48 °F 55 °F 84 °F (1974)
Min Temperature 41 °F 38 °F 17 °F (1899)
Degree Days  
Heating Degree Days 20 18  
Month to date heating degree days 134  
Since 1 July heating degree days 2703  
Cooling Degree Days 0 0  
Month to date cooling degree days 0  
Year to date cooling degree days 1  
Moisture  
Dew Point 39 °F    
Average Humidity 81    
Maximum Humidity 89    
Minimum Humidity 73    
Precipitation  
Precipitation 0.96 in 0.12 in 2.78 in (1875)
Month to date precipitation 0.82  
Year to date precipitation 7.34  
Snow  
Snow 0.00 in 0.00 in 0.80 in (1962)
Month to date snowfall 0.1  
Since 1 July snowfall 5.7  
Snow Depth -    
Sea Level Pressure  
Sea Level Pressure 29.92 in    
Wind  
Wind Speed 19 mph (NNE)    
Max Wind Speed 26 mph    
Max Gust Speed 40 mph    
Visibility 6 miles    
Events Rain    
T = Trace of Precipitation, MM = Missing Value Source: NWS Daily Summary

Daily Weather History Graph

Daily Weather History Graph

Search for Another Location

Airport:

Trip Planner

Search our weather history database for the weather conditions in past years. The results will help you decide how hot, cold, wet, or windy it might be!

Date:

Astronomy

Mar. 07, 2014 Rise Set
Actual Time 6:26 AM EST 6:04 PM EST
Civil Twilight 6:01 AM EST 6:30 PM EST
Nautical Twilight 5:31 AM EST 7:00 PM EST
Astronomical Twilight 5:01 AM EST 7:30 PM EST
Moon 10:27 AM EST (3/7) No Moon Set
Length of Visible Light 12h 29m
Length of Day
11h 37m
Waxing Crescent, 42% of the Moon is Illuminated
Mar 7
Waxing Crescent
Mar 8
First Quarter
Mar 16
Full
Mar 23
Last Quarter
Mar 30
New

Hourly Weather History & Observations

Time (EST) Temp. Windchill Dew Point Humidity Pressure Visibility Wind Dir Wind Speed Gust Speed Precip Events Conditions
12:56 AM 44.1 °F 36.5 °F 36.0 °F 73% 30.17 in 10.0 mi NNE 17.3 mph - N/A   Overcast
1:56 AM 44.1 °F 36.5 °F 37.0 °F 76% 30.12 in 10.0 mi NNE 17.3 mph 26.5 mph 0.00 in Rain Light Rain
2:56 AM 45.0 °F 37.4 °F 39.0 °F 80% 30.05 in 6.0 mi NNE 18.4 mph 25.3 mph 0.02 in Rain Light Rain
3:56 AM 46.0 °F 39.3 °F 41.0 °F 83% 30.04 in 8.0 mi NNE 16.1 mph 26.5 mph 0.03 in Rain Light Rain
4:56 AM 48.0 °F - 42.1 °F 80% 30.04 in 7.0 mi NE 18.4 mph 32.2 mph 0.10 in Rain Light Rain
5:16 AM 48.0 °F - 42.1 °F 80% 30.01 in 5.0 mi NNE 17.3 mph 29.9 mph 0.05 in Rain Rain
5:27 AM 46.9 °F - 41.0 °F 80% 30.02 in 7.0 mi NE 17.3 mph 26.5 mph 0.07 in Rain Light Rain
5:56 AM 46.9 °F - 41.0 °F 80% 30.02 in 5.0 mi NNE 19.6 mph 27.6 mph 0.13 in Rain Rain
6:06 AM 46.9 °F - 41.0 °F 80% 30.03 in 6.0 mi NNE 18.4 mph 25.3 mph 0.02 in Rain Rain
6:31 AM 46.9 °F - 41.0 °F 80% 30.03 in 7.0 mi NNE 17.3 mph 24.2 mph 0.06 in Rain Light Rain
6:40 AM 46.0 °F 38.8 °F 41.0 °F 83% 30.01 in 6.0 mi NNE 18.4 mph 26.5 mph 0.08 in Rain Light Rain
6:47 AM 46.0 °F 38.8 °F 39.9 °F 79% 30.00 in 6.0 mi NNE 18.4 mph 29.9 mph 0.09 in Rain Rain
6:52 AM 46.4 °F 39.2 °F 41.0 °F 81% 30.02 in 5.0 mi NNE 18.4 mph 27.6 mph 0.11 in Rain Rain
6:56 AM 46.0 °F 39.0 °F 41.0 °F 83% 30.03 in 5.0 mi NNE 17.3 mph 27.6 mph 0.13 in Rain Heavy Rain
7:39 AM 46.0 °F 39.0 °F 39.9 °F 79% 30.04 in 6.0 mi NE 17.3 mph 24.2 mph 0.05 in Rain Rain
7:56 AM 46.0 °F 38.8 °F 39.9 °F 79% 30.02 in 3.0 mi NE 18.4 mph 27.6 mph 0.09 in Rain Rain
8:03 AM 45.0 °F 36.4 °F 39.9 °F 82% 30.00 in 2.5 mi NE 23.0 mph 35.7 mph 0.04 in Rain Heavy Rain
8:12 AM 45.0 °F 36.4 °F 39.0 °F 80% 29.98 in 3.0 mi NE 23.0 mph 39.1 mph 0.05 in Rain Rain
8:56 AM 46.0 °F 37.6 °F 39.9 °F 79% 29.92 in 6.0 mi NE 24.2 mph 35.7 mph 0.09 in Rain Light Rain
9:39 AM 46.9 °F - 41.0 °F 80% 29.91 in 9.0 mi NE 20.7 mph 31.1 mph 0.01 in   Overcast
9:56 AM 48.0 °F - 41.0 °F 77% 29.92 in 9.0 mi NE 23.0 mph 33.4 mph 0.01 in   Overcast
10:56 AM 46.9 °F - 39.9 °F 77% 29.91 in 7.0 mi NNE 19.6 mph 33.4 mph 0.00 in   Overcast
11:56 AM 46.0 °F 38.5 °F 39.9 °F 79% 29.91 in 3.0 mi NNE 19.6 mph 33.4 mph 0.00 in Rain Light Rain
12:42 PM 45.0 °F 36.6 °F 39.0 °F 80% 29.88 in 1.8 mi North 21.9 mph 31.1 mph 0.00 in Rain Light Rain
12:56 PM 45.0 °F 36.6 °F 39.0 °F 80% 29.87 in 1.8 mi North 21.9 mph 33.4 mph 0.01 in Rain Light Rain
1:16 PM 45.0 °F 36.2 °F 39.0 °F 80% 29.85 in 2.0 mi NNE 24.2 mph 35.7 mph 0.00 in Rain Light Rain
1:34 PM 45.0 °F 36.4 °F 39.9 °F 82% 29.85 in 1.8 mi North 23.0 mph 39.1 mph 0.00 in Rain Light Rain
1:39 PM 45.0 °F 36.6 °F 41.0 °F 86% 29.85 in 3.0 mi NNE 21.9 mph 34.5 mph 0.00 in Rain Light Rain
1:56 PM 45.0 °F 35.8 °F 41.0 °F 86% 29.84 in 5.0 mi NNE 26.5 mph 40.3 mph 0.02 in Rain Light Rain
2:18 PM 45.0 °F 36.4 °F 41.0 °F 86% 29.82 in 2.0 mi NNE 23.0 mph 34.5 mph 0.02 in Rain Light Rain
2:39 PM 45.0 °F 36.9 °F 41.0 °F 86% 29.82 in 4.0 mi North 20.7 mph 31.1 mph 0.04 in Rain Rain
2:54 PM 44.6 °F 35.7 °F 41.0 °F 87% 29.81 in 2.0 mi North 24.2 mph 34.5 mph 0.07 in Rain Rain
2:56 PM 45.0 °F 37.9 °F 41.0 °F 86% 29.82 in 2.0 mi North 16.1 mph 34.5 mph 0.07 in Rain Rain
3:12 PM 44.1 °F 35.7 °F 41.0 °F 89% 29.81 in 3.0 mi North 20.7 mph 29.9 mph 0.02 in Rain Light Rain
3:56 PM 44.1 °F 36.5 °F 39.9 °F 85% 29.80 in 5.0 mi North 17.3 mph 29.9 mph 0.05 in Rain Light Rain
4:56 PM 43.0 °F 34.2 °F 39.0 °F 86% 29.80 in 5.0 mi North 20.7 mph 31.1 mph 0.04 in Rain Light Rain
5:47 PM 42.1 °F 32.6 °F 37.9 °F 85% 29.80 in 2.5 mi North 23.0 mph 31.1 mph 0.11 in Rain Rain
5:56 PM 42.1 °F 32.6 °F 37.0 °F 82% 29.81 in 3.0 mi North 23.0 mph 32.2 mph 0.13 in Rain Rain
6:56 PM 42.1 °F 33.3 °F 37.0 °F 82% 29.81 in 10.0 mi North 19.6 mph 34.5 mph 0.03 in Rain Light Rain
7:56 PM 41.0 °F 31.6 °F 36.0 °F 82% 29.81 in 10.0 mi North 20.7 mph 35.7 mph 0.00 in   Overcast
8:56 PM 41.0 °F 31.1 °F 36.0 °F 82% 29.80 in 10.0 mi North 23.0 mph 32.2 mph 0.01 in   Overcast
9:56 PM 41.0 °F 31.1 °F 36.0 °F 82% 29.81 in 10.0 mi North 23.0 mph 39.1 mph 0.00 in   Overcast
10:37 PM 41.0 °F 32.5 °F 35.1 °F 79% 29.82 in 10.0 mi North 17.3 mph 26.5 mph N/A   Overcast
10:56 PM 41.0 °F 31.6 °F 35.1 °F 79% 29.85 in 10.0 mi North 20.7 mph 38.0 mph N/A   Overcast
11:56 PM 42.1 °F 33.3 °F 35.1 °F 76% 29.85 in 10.0 mi North 19.6 mph 27.6 mph N/A   Overcast